SCP
-0 0 1 1 0 0 0 0 0 0 0 0 0 0 0 0 0 0 0 0 0 0 0 0 0 0 0 0 0 0 0 0 0 0 0 0 0 0 0 0 0 0 0
0 0 1 1 0 0 0 0 0 0 0 0 0 0 0 0 0 0 0 0 0 0 0 0 0 0 0 0 0 0 0 0 0 1 0 0 0 0 0 0 0 0 0
0 0 1 1 0 0 0 0 0 0 0 0 0 0 0 0 0 0 0 0 0 0 0 0 0 0 0 0 0 0 0 0 0 1 0 0 0 0 1 1 0 0 0
0 0 0 0 0 0 0 0 1 0 0 0 0 0 0 0 0 0 0 0 0 0 0 0 0 0 0 0 0 0 0 0 0 1 0 0 0 0 0 0 0 0 0
0 0 0 1 1 1 1 1 1 1 1 0 0 0 0 0 0 0 0 0 0 0 0 0 0 0 0 0 0 0 0 0 0 1 0 0 0 0 0 0 0 0 0
0 0 0 1 2 2 1 1 1 1 0 1 0 0 0 0 0 0 0 0 0 0 0 0 0 0 0 0 0 0 0 0 0 0 0 0 0 0 0 0 0 0 0
0 0 1 1 2 1 1 1 1 0 1 1 0 0 0 0 0 0 0 0 0 0 0 0 0 0 0 0 0 0 0 0 0 0 0 0 0 0 0 0 0 1 0
0 1 1 1 1 1 1 1 1 1 1 1 0 0 0 0 0 0 0 0 0 0 0 0 0 0 0 0 0 0 0 0 0 0 0 0 0 0 0 0 1 1 1
0 0 1 1 1 1 1 1 2 1 1 0 0 0 0 0 0 0 0 0 0 0 0 0 0 0 0 0 0 0 0 0 0 0 0 0 0 0 0 1 1 1 0
0 0 0 0 0 1 1 1 1 1 0 0 0 0 0 0 0 0 0 0 0 0 0 0 0 0 0 0 0 0 0 0 0 0 0 0 0 0 0 1 1 1 1
0 0 0 0 0 0 0 0 0 0 0 0 0 0 0 0 0 0 0 0 0 0 -0 0 0 0 0 0 0 0 0 0 0 0 0 1 0 0 0 0 1 0 1
0 0 0 0 0 0 0 0 0 0 0 0 0 0 0 0 0 0 0 0 0 0 0 -0 -0 0 0 0 0 0 0 0 0 0 1 1 0 0 0 0 0 0 0
0 0 0 0 0 0 0 0 0 0 0 0 0 0 0 0 0 0 0 0 0 0 0 0 0 0 0 0 0 0 0 0 0 0 1 1 0 0 0 1 0 0 0
0 0 0 0 0 0 0 0 0 0 0 0 0 0 0 0 0 0 0 0 0 0 0 0 0 0 0 0 0 0 0 0 0 0 1 1 0 0 0 0 0 0 0
0 0 0 0 0 0 0 0 0 0 0 0 0 0 0 0 0 0 0 0 0 0 0 0 0 0 0 0 0 0 0 0 0 0 1 1 0 0 0 0 0 0 0
0 0 0 0 0 0 0 0 0 0 0 0 0 0 0 0 0 0 0 0 0 0 0 0 0 0 0 0 0 0 0 0 0 0 0 1 0 0 0 0 0 0 0
0 0 0 0 0 0 0 0 0 0 0 0 0 0 0 0 0 0 0 0 0 0 0 0 0 0 0 0 0 0 0 0 0 0 0 1 1 0 0 0 0 0 0
0 0 0 0 0 0 0 0 0 0 0 0 0 0 0 0 0 0 0 0 0 0 0 0 0 0 0 0 0 0 0 0 0 0 1 0 0 0 0 0 0 0 0
0 0 0 0 0 0 0 0 0 0 0 0 0 0 0 0 0 0 0 0 0 0 -0 0 0 0 0 0 0 0 0 0 0 0 0 0 0 0 0 0 0 0 0
0 0 0 0 0 0 0 0 0 0 0 0 0 0 0 0 0 0 -0 0 0 0 0 0 0 0 0 0 0 0 0 0 0 0 0 0 0 0 0 0 0 0 -0
0 0 0 0 0 0 0 0 0 0 0 0 0 0 0 0 0 0 -0 0 0 0 -0 0 0 0 0 0 0 0 0 0 0 0 0 0 0 0 0 0 0 0 0
0 0 0 0 0 0 0 0 0 0 0 0 0 0 0 0 0 0 -0 0 0 -0 -0 0 0 0 0 0 0 0 0 0 0 0 0 0 0 0 0 0 0 0 0
0 0 0 0 0 0 0 0 0 0 0 0 0 0 0 0 0 0 -0 -0 0 -0 -0 0 0 0 0 0 0 0 0 0 0 0 0 0 0 0 0 0 0 0 0
0 0 0 0 0 0 0 0 0 0 0 0 0 0 0 0 0 0 0 0 -0 0 0 0 0 0 0 0 0 0 0 0 0 0 0 0 0 0 0 0 0 0 0
0 0 0 0 0 0 0 0 0 0 0 0 0 0 0 0 0 0 0 -0 -0 0 0 0 0 0 0 0 0 0 0 0 0 0 0 0 0 0 0 0 0 0 0
0 0 0 0 0 0 0 0 0 0 0 0 0 0 0 0 0 -0 -0 -0 0 0 0 0 0 0 0 0 0 0 0 0 0 0 0 0 0 0 0 -0 0 0 0
Wind_Speed_500mb
36 35 21 15 14 13 10 8 11 13 15 13 13 12 15 19 20 21 22 23 23 18 21 20 23 25 26 27 31 36 37 36 35 34 34 40 34 34 17 24 26 24 20
20 33 26 19 11 11 10 12 14 17 19 19 17 18 19 20 19 23 26 27 26 26 21 24 25 26 28 26 27 33 38 35 32 32 34 34 33 38 36 32 34 33 30
25 27 25 18 13 15 15 18 20 23 24 25 25 26 26 21 22 22 27 27 27 27 27 23 24 29 30 28 26 30 36 34 30 33 36 39 41 35 39 38 33 40 42
19 18 17 18 17 18 18 20 24 27 29 30 31 29 26 31 32 27 28 30 30 29 29 29 24 25 31 32 29 27 33 33 31 30 40 42 39 36 39 40 39 40 46
15 7 12 20 19 19 21 23 26 31 34 34 31 32 35 37 36 36 33 32 34 33 30 28 31 27 28 32 34 29 27 28 32 29 38 39 41 36 35 42 43 46 45
17 11 15 18 20 23 24 26 32 33 34 34 36 40 42 44 42 39 40 38 38 38 37 36 36 35 30 33 35 32 28 28 33 32 36 44 45 41 38 42 47 46 42
27 23 25 27 24 24 26 31 30 30 30 33 40 43 46 46 45 44 45 44 41 40 39 38 38 41 35 36 33 33 37 34 35 34 35 45 52 48 45 44 47 48 46
27 25 29 29 25 24 31 34 31 32 29 29 32 36 41 46 51 54 51 49 49 50 46 46 43 42 42 37 40 36 37 36 36 37 35 42 50 54 48 48 51 49 49
25 29 29 25 23 29 33 32 30 32 34 30 32 39 36 38 45 52 55 55 52 50 50 50 47 46 47 41 43 42 37 38 37 36 35 41 48 54 55 54 55 55 51
21 25 28 24 26 32 31 29 29 35 28 28 36 37 35 39 41 32 38 44 43 44 46 47 47 48 48 45 46 42 40 37 38 38 34 40 44 51 56 60 62 57 58
30 28 26 28 32 28 24 29 37 28 27 34 38 38 40 47 41 32 30 31 30 31 33 39 44 47 47 47 45 46 41 38 39 41 37 38 40 44 58 63 68 69 71
35 35 35 34 27 22 26 32 29 28 29 34 37 37 39 43 32 28 27 31 33 31 31 35 39 43 45 49 43 46 40 36 39 42 40 35 37 41 54 66 73 69 58
38 45 42 33 26 21 28 29 24 28 33 33 35 39 48 36 26 22 23 21 26 32 35 27 37 42 45 47 42 42 39 34 38 42 41 35 35 43 55 63 66 63 67
46 54 49 38 27 27 31 21 17 19 22 29 39 45 39 31 26 21 21 22 24 23 28 29 32 37 43 38 32 37 38 32 37 42 41 38 37 45 55 56 66 61 55
50 52 43 34 26 26 24 17 17 16 20 25 31 33 36 35 31 22 21 25 24 25 27 26 32 38 40 33 28 36 35 31 38 40 41 37 37 49 55 52 58 59 60
56 53 43 29 24 27 18 15 19 22 24 26 30 29 34 38 34 30 22 24 21 26 25 27 27 38 38 35 31 38 35 28 40 38 39 40 38 50 55 56 54 54 65
59 48 34 26 22 21 20 15 17 25 27 32 29 27 30 33 32 29 28 25 21 24 26 28 28 36 35 39 40 42 30 34 39 36 40 43 39 52 56 53 62 56 57
59 47 31 22 15 16 13 15 21 27 29 29 26 27 25 27 30 33 32 26 21 22 23 33 33 34 38 39 44 42 31 40 38 35 41 39 40 51 55 52 48 40 45
57 42 27 17 9 8 7 12 22 25 26 25 22 24 26 23 26 29 28 23 21 19 26 33 34 34 38 37 41 34 34 39 40 37 40 40 40 50 60 57 53 50 58
48 32 21 14 6 3 4 13 18 23 22 22 26 28 29 23 21 25 25 19 19 17 19 38 36 41 40 38 34 36 34 36 37 40 41 43 42 50 59 62 53 60 67
41 26 22 14 7 4 7 15 19 24 24 27 29 27 29 25 14 20 21 20 17 13 16 31 36 41 33 28 34 36 32 35 34 38 39 39 44 45 54 53 70 66 76
38 27 22 13 6 2 6 12 20 26 29 29 28 19 25 21 12 21 19 16 15 14 23 32 35 37 35 32 43 36 36 28 30 35 40 46 46 44 46 60 71 72 74
35 27 21 12 7 3 6 13 22 23 25 29 16 15 21 16 7 20 17 16 19 18 23 31 36 34 34 39 41 38 21 12 37 42 42 50 47 52 55 57 54 73 84
32 26 20 13 4 9 3 10 21 25 31 25 8 11 11 8 8 17 17 21 20 18 24 27 35 37 39 42 41 39 34 35 31 36 54 54 52 51 54 56 52 69 77
31 27 21 12 5 5 4 12 22 23 25 13 5 8 9 3 9 21 23 23 25 22 23 24 35 35 36 40 52 37 36 42 40 50 48 57 55 55 51 52 52 75 78
32 27 20 10 5 4 4 12 20 21 19 12 10 12 11 3 13 27 27 30 27 27 25 25 27 29 34 40 39 29 32 59 50 42 53 62 62 57 54 57 76 77 78
Wind_Direction_500mb
186 185 190 198 208 223 230 257 284 281 277 276 270 269 274 284 294 296 295 296 297 285 269 261 242 237 235 236 233 229 228 227 227 226 223 223 220 218 213 195 194 184 168
183 190 201 199 210 247 268 293 292 285 281 279 272 264 259 256 269 280 280 283 287 289 283 266 261 242 238 239 239 234 233 228 228 225 223 217 221 212 209 197 198 178 173
187 194 205 209 254 261 279 300 299 294 286 281 278 279 280 262 270 271 273 275 277 281 281 274 258 259 245 243 243 238 235 228 227 223 222 223 216 208 206 200 199 183 178
200 200 236 254 268 270 274 292 294 291 289 285 279 279 276 282 284 276 265 264 267 274 272 276 264 251 254 245 246 243 239 228 221 222 220 216 211 209 204 204 194 188 189
196 245 264 237 236 240 260 276 281 286 287 282 277 275 280 280 278 280 273 266 267 268 263 263 270 263 251 247 242 240 245 233 215 221 219 213 209 205 202 200 190 182 180
192 210 235 234 231 238 260 289 292 287 283 277 269 269 280 279 279 275 270 270 268 266 263 256 261 269 253 249 239 235 240 232 214 217 217 209 212 212 204 201 192 185 182
189 198 208 232 248 272 291 299 302 303 299 285 278 273 276 277 276 270 268 269 268 264 261 255 251 254 252 245 237 238 231 227 215 216 218 209 211 212 205 200 196 190 188
213 216 220 238 256 273 285 289 297 305 301 295 285 280 279 274 269 265 266 265 263 261 257 251 254 250 249 245 235 231 232 226 220 216 215 212 210 214 208 199 198 190 187
222 229 236 252 257 274 281 283 289 296 297 294 294 293 294 293 280 269 265 262 262 259 254 252 246 246 245 241 238 232 230 228 221 216 216 212 210 212 210 201 197 189 184
222 237 243 252 246 254 262 278 287 297 288 286 295 306 306 309 302 284 269 259 258 257 256 251 245 240 236 234 236 231 228 229 221 214 218 213 211 211 209 204 193 187 184
223 230 244 237 235 249 259 286 293 283 282 291 303 306 309 318 304 293 273 259 254 262 257 247 237 237 231 230 234 228 227 229 221 212 215 208 209 209 206 203 194 187 186
219 225 230 226 242 254 282 302 294 277 277 290 299 301 305 306 301 288 276 263 253 250 260 249 231 230 226 227 231 225 224 226 219 210 214 209 207 205 205 202 196 196 187
212 216 218 221 231 270 302 305 300 280 277 284 288 291 296 294 297 290 283 266 257 252 255 254 231 223 223 226 233 223 218 220 215 210 213 207 206 203 197 204 192 194 193
217 210 207 218 250 285 312 309 315 310 297 294 289 288 289 283 280 297 272 267 259 256 247 239 232 223 220 223 223 214 212 211 209 209 209 206 204 196 194 207 209 197 200
213 205 216 235 266 300 309 308 322 334 317 302 303 293 283 278 277 284 286 272 272 267 252 238 226 218 218 216 217 202 202 207 205 207 209 203 201 198 200 197 193 196 195
211 217 223 241 270 296 322 320 318 314 312 312 313 298 284 280 276 267 286 277 272 269 246 231 221 213 214 213 210 196 200 200 200 206 206 205 206 200 201 196 202 205 192
219 219 222 242 263 302 325 320 322 322 317 317 319 309 288 278 269 268 277 275 270 267 242 223 215 216 217 209 202 200 203 198 208 204 207 206 212 197 197 202 199 192 205
215 212 223 242 276 307 318 317 312 314 313 308 308 319 302 282 270 264 262 263 265 260 240 222 214 212 210 205 197 203 205 204 206 210 209 207 206 194 193 196 184 168 174
213 211 226 233 272 309 296 289 303 314 305 303 306 320 324 293 267 255 249 249 260 261 242 221 213 205 202 201 201 203 203 204 212 211 205 206 204 189 191 185 181 179 174
205 211 225 218 252 233 263 286 301 322 325 314 305 315 320 320 261 254 231 235 250 258 237 205 202 203 201 201 201 200 210 206 206 196 200 197 195 195 191 182 184 182 176
205 209 204 211 196 153 261 289 305 317 323 316 310 309 318 317 278 237 218 225 237 231 207 193 195 202 199 200 202 203 191 200 199 192 199 199 189 191 191 199 179 173 170
197 198 194 193 156 158 286 292 312 318 326 321 310 301 324 312 274 225 208 217 214 199 189 184 195 199 203 197 187 163 165 182 198 198 197 189 188 189 186 183 178 179 174
188 193 186 179 147 222 250 309 317 315 322 325 314 295 325 314 269 184 192 199 189 181 186 190 187 190 192 182 193 180 153 170 177 190 198 191 189 187 184 177 186 178 169
187 179 176 175 183 225 295 332 337 344 339 338 329 325 337 330 173 180 180 174 172 170 179 186 196 192 187 183 180 185 194 193 168 166 192 189 185 192 190 192 185 173 169
183 173 175 172 227 228 269 335 348 354 4 5 8 346 4 340 179 166 160 157 164 169 173 187 189 194 187 188 183 182 200 188 176 163 157 175 180 182 184 183 183 172 170
172 171 171 189 159 183 242 333 341 350 13 18 3 340 342 187 172 170 167 163 157 166 164 172 185 186 192 193 198 203 194 178 180 189 148 162 170 183 183 182 171 170 168
Wind_Speed_850mb
36 35 21 15 14 13 10 8 11 13 15 13 13 12 15 19 20 21 22 23 23 18 21 20 23 25 26 27 31 36 37 36 35 34 34 40 34 34 17 24 26 24 20
20 33 26 19 11 11 10 12 14 17 19 19 17 18 19 20 19 23 26 27 26 26 21 24 25 26 28 26 27 33 38 35 32 32 34 34 33 38 36 32 34 33 30
25 27 25 18 13 15 15 18 20 23 24 25 25 26 26 21 22 22 27 27 27 27 27 23 24 29 30 28 26 30 36 34 30 33 36 39 41 35 39 38 33 40 42
19 18 17 18 17 18 18 20 24 27 29 30 31 29 26 31 32 27 28 30 30 29 29 29 24 25 31 32 29 27 33 33 31 30 40 42 39 36 39 40 39 40 46
15 7 12 20 19 19 21 23 26 31 34 34 31 32 35 37 36 36 33 32 34 33 30 28 31 27 28 32 34 29 27 28 32 29 38 39 41 36 35 42 43 46 45
17 11 15 18 20 23 24 26 32 33 34 34 36 40 42 44 42 39 40 38 38 38 37 36 36 35 30 33 35 32 28 28 33 32 36 44 45 41 38 42 47 46 42
27 23 25 27 24 24 26 31 30 30 30 33 40 43 46 46 45 44 45 44 41 40 39 38 38 41 35 36 33 33 37 34 35 34 35 45 52 48 45 44 47 48 46
27 25 29 29 25 24 31 34 31 32 29 29 32 36 41 46 51 54 51 49 49 50 46 46 43 42 42 37 40 36 37 36 36 37 35 42 50 54 48 48 51 49 49
25 29 29 25 23 29 33 32 30 32 34 30 32 39 36 38 45 52 55 55 52 50 50 50 47 46 47 41 43 42 37 38 37 36 35 41 48 54 55 54 55 55 51
21 25 28 24 26 32 31 29 29 35 28 28 36 37 35 39 41 32 38 44 43 44 46 47 47 48 48 45 46 42 40 37 38 38 34 40 44 51 56 60 62 57 58
30 28 26 28 32 28 24 29 37 28 27 34 38 38 40 47 41 32 30 31 30 31 33 39 44 47 47 47 45 46 41 38 39 41 37 38 40 44 58 63 68 69 71
35 35 35 34 27 22 26 32 29 28 29 34 37 37 39 43 32 28 27 31 33 31 31 35 39 43 45 49 43 46 40 36 39 42 40 35 37 41 54 66 73 69 58
38 45 42 33 26 21 28 29 24 28 33 33 35 39 48 36 26 22 23 21 26 32 35 27 37 42 45 47 42 42 39 34 38 42 41 35 35 43 55 63 66 63 67
46 54 49 38 27 27 31 21 17 19 22 29 39 45 39 31 26 21 21 22 24 23 28 29 32 37 43 38 32 37 38 32 37 42 41 38 37 45 55 56 66 61 55
50 52 43 34 26 26 24 17 17 16 20 25 31 33 36 35 31 22 21 25 24 25 27 26 32 38 40 33 28 36 35 31 38 40 41 37 37 49 55 52 58 59 60
56 53 43 29 24 27 18 15 19 22 24 26 30 29 34 38 34 30 22 24 21 26 25 27 27 38 38 35 31 38 35 28 40 38 39 40 38 50 55 56 54 54 65
59 48 34 26 22 21 20 15 17 25 27 32 29 27 30 33 32 29 28 25 21 24 26 28 28 36 35 39 40 42 30 34 39 36 40 43 39 52 56 53 62 56 57
59 47 31 22 15 16 13 15 21 27 29 29 26 27 25 27 30 33 32 26 21 22 23 33 33 34 38 39 44 42 31 40 38 35 41 39 40 51 55 52 48 40 45
57 42 27 17 9 8 7 12 22 25 26 25 22 24 26 23 26 29 28 23 21 19 26 33 34 34 38 37 41 34 34 39 40 37 40 40 40 50 60 57 53 50 58
48 32 21 14 6 3 4 13 18 23 22 22 26 28 29 23 21 25 25 19 19 17 19 38 36 41 40 38 34 36 34 36 37 40 41 43 42 50 59 62 53 60 67
41 26 22 14 7 4 7 15 19 24 24 27 29 27 29 25 14 20 21 20 17 13 16 31 36 41 33 28 34 36 32 35 34 38 39 39 44 45 54 53 70 66 76
38 27 22 13 6 2 6 12 20 26 29 29 28 19 25 21 12 21 19 16 15 14 23 32 35 37 35 32 43 36 36 28 30 35 40 46 46 44 46 60 71 72 74
35 27 21 12 7 3 6 13 22 23 25 29 16 15 21 16 7 20 17 16 19 18 23 31 36 34 34 39 41 38 21 12 37 42 42 50 47 52 55 57 54 73 84
32 26 20 13 4 9 3 10 21 25 31 25 8 11 11 8 8 17 17 21 20 18 24 27 35 37 39 42 41 39 34 35 31 36 54 54 52 51 54 56 52 69 77
31 27 21 12 5 5 4 12 22 23 25 13 5 8 9 3 9 21 23 23 25 22 23 24 35 35 36 40 52 37 36 42 40 50 48 57 55 55 51 52 52 75 78
32 27 20 10 5 4 4 12 20 21 19 12 10 12 11 3 13 27 27 30 27 27 25 25 27 29 34 40 39 29 32 59 50 42 53 62 62 57 54 57 76 77 78
Wind_Direction_850mb
186 185 190 198 208 223 230 257 284 281 277 276 270 269 274 284 294 296 295 296 297 285 269 261 242 237 235 236 233 229 228 227 227 226 223 223 220 218 213 195 194 184 168
183 190 201 199 210 247 268 293 292 285 281 279 272 264 259 256 269 280 280 283 287 289 283 266 261 242 238 239 239 234 233 228 228 225 223 217 221 212 209 197 198 178 173
187 194 205 209 254 261 279 300 299 294 286 281 278 279 280 262 270 271 273 275 277 281 281 274 258 259 245 243 243 238 235 228 227 223 222 223 216 208 206 200 199 183 178
200 200 236 254 268 270 274 292 294 291 289 285 279 279 276 282 284 276 265 264 267 274 272 276 264 251 254 245 246 243 239 228 221 222 220 216 211 209 204 204 194 188 189
196 245 264 237 236 240 260 276 281 286 287 282 277 275 280 280 278 280 273 266 267 268 263 263 270 263 251 247 242 240 245 233 215 221 219 213 209 205 202 200 190 182 180
192 210 235 234 231 238 260 289 292 287 283 277 269 269 280 279 279 275 270 270 268 266 263 256 261 269 253 249 239 235 240 232 214 217 217 209 212 212 204 201 192 185 182
189 198 208 232 248 272 291 299 302 303 299 285 278 273 276 277 276 270 268 269 268 264 261 255 251 254 252 245 237 238 231 227 215 216 218 209 211 212 205 200 196 190 188
213 216 220 238 256 273 285 289 297 305 301 295 285 280 279 274 269 265 266 265 263 261 257 251 254 250 249 245 235 231 232 226 220 216 215 212 210 214 208 199 198 190 187
222 229 236 252 257 274 281 283 289 296 297 294 294 293 294 293 280 269 265 262 262 259 254 252 246 246 245 241 238 232 230 228 221 216 216 212 210 212 210 201 197 189 184
222 237 243 252 246 254 262 278 287 297 288 286 295 306 306 309 302 284 269 259 258 257 256 251 245 240 236 234 236 231 228 229 221 214 218 213 211 211 209 204 193 187 184
223 230 244 237 235 249 259 286 293 283 282 291 303 306 309 318 304 293 273 259 254 262 257 247 237 237 231 230 234 228 227 229 221 212 215 208 209 209 206 203 194 187 186
219 225 230 226 242 254 282 302 294 277 277 290 299 301 305 306 301 288 276 263 253 250 260 249 231 230 226 227 231 225 224 226 219 210 214 209 207 205 205 202 196 196 187
212 216 218 221 231 270 302 305 300 280 277 284 288 291 296 294 297 290 283 266 257 252 255 254 231 223 223 226 233 223 218 220 215 210 213 207 206 203 197 204 192 194 193
217 210 207 218 250 285 312 309 315 310 297 294 289 288 289 283 280 297 272 267 259 256 247 239 232 223 220 223 223 214 212 211 209 209 209 206 204 196 194 207 209 197 200
213 205 216 235 266 300 309 308 322 334 317 302 303 293 283 278 277 284 286 272 272 267 252 238 226 218 218 216 217 202 202 207 205 207 209 203 201 198 200 197 193 196 195
211 217 223 241 270 296 322 320 318 314 312 312 313 298 284 280 276 267 286 277 272 269 246 231 221 213 214 213 210 196 200 200 200 206 206 205 206 200 201 196 202 205 192
219 219 222 242 263 302 325 320 322 322 317 317 319 309 288 278 269 268 277 275 270 267 242 223 215 216 217 209 202 200 203 198 208 204 207 206 212 197 197 202 199 192 205
215 212 223 242 276 307 318 317 312 314 313 308 308 319 302 282 270 264 262 263 265 260 240 222 214 212 210 205 197 203 205 204 206 210 209 207 206 194 193 196 184 168 174
213 211 226 233 272 309 296 289 303 314 305 303 306 320 324 293 267 255 249 249 260 261 242 221 213 205 202 201 201 203 203 204 212 211 205 206 204 189 191 185 181 179 174
205 211 225 218 252 233 263 286 301 322 325 314 305 315 320 320 261 254 231 235 250 258 237 205 202 203 201 201 201 200 210 206 206 196 200 197 195 195 191 182 184 182 176
205 209 204 211 196 153 261 289 305 317 323 316 310 309 318 317 278 237 218 225 237 231 207 193 195 202 199 200 202 203 191 200 199 192 199 199 189 191 191 199 179 173 170
197 198 194 193 156 158 286 292 312 318 326 321 310 301 324 312 274 225 208 217 214 199 189 184 195 199 203 197 187 163 165 182 198 198 197 189 188 189 186 183 178 179 174
188 193 186 179 147 222 250 309 317 315 322 325 314 295 325 314 269 184 192 199 189 181 186 190 187 190 192 182 193 180 153 170 177 190 198 191 189 187 184 177 186 178 169
187 179 176 175 183 225 295 332 337 344 339 338 329 325 337 330 173 180 180 174 172 170 179 186 196 192 187 183 180 185 194 193 168 166 192 189 185 192 190 192 185 173 169
183 173 175 172 227 228 269 335 348 354 4 5 8 346 4 340 179 166 160 157 164 169 173 187 189 194 187 188 183 182 200 188 176 163 157 175 180 182 184 183 183 172 170
172 171 171 189 159 183 242 333 341 350 13 18 3 340 342 187 172 170 167 163 157 166 164 172 185 186 192 193 198 203 194 178 180 189 148 162 170 183 183 182 171 170 168